Regional Weather Roundup
Issued by NWS

Home | Current Version | Previous Version | Graphics & Text | Print | Product List | Glossary On
Versions: 1 2 3 4 5 6 7 8 9 10 11 12 13 14 15 16 17 18 19 20 21 22 23 24 25 26 27 28 29 30 31 32 33 34 35 36 37 38 39 40 41 42 43 44 45 46 47 48 49 50
000
ASUS43 KMPX 260301
RWRMN
WEATHER ROUNDUP FOR MINNESOTA
NATIONAL WEATHER SERVICE TWIN CITIES/CHANHASSEN MN
900 PM CST TUE NOV 25 2014


NOTE: "FAIR" INDICATES FEW OR NO CLOUDS BELOW 12,000 FEET WITH NO
SIGNIFICANT WEATHER AND/OR OBSTRUCTIONS TO VISIBILITY. N/A MEANS
CURRENT SKY AND/OR WEATHER CONDITIONS ARE NOT AVAILABLE.

MNZ060>063-068>070-260400-
   Twin Cities Metro

CITY           SKY/WX    TMP DP  RH WIND       PRES   REMARKS
TWIN CITIES    CLOUDY    24  15  68 SE3       30.04R
ST PAUL        CLOUDY    24  16  71 S6        30.06R WCI  17
CRYSTAL        CLOUDY    25  16  68 SE6       30.02R WCI  18
LAKEVILLE      CLOUDY    23  18  80 CALM      30.03R
EDEN PRAIRIE   CLOUDY    25  15  66 E7        30.01S WCI  17
SOUTH ST PAUL  CLOUDY    26  17  70 SE3       30.04R
LAKE ELMO      CLOUDY    27  19  74 S5        30.04S WCI  21
$$
MNZ001>005-007-008-013>017-022>024-027-028-260400-
   Northwest Minnesota

CITY           SKY/WX    TMP DP  RH WIND       PRES   REMARKS
BEMIDJI        CLOUDY    19  13  77 E3        29.98R
HALLOCK        LGT SNOW  12   7  79 N15       30.10R WCI  -4
ROSEAU         FLURRIES  14   9  79 N8        30.06R WCI   3
WARROAD        LGT SNOW  12   9  85 N6        30.05R WCI   3
THIEF RVR FALL CLOUDY    19  14  79 N12       30.02R WCI   7
CROOKSTON      LGT SNOW  19  18  93 N10       30.04R WCI   8
FOSSTON        CLOUDY    19  14  79 N5        29.99R HAZE    WCI  13
DETROIT LAKES  CLOUDY    21  14  73 SE6       29.96R WCI  14
MOORHEAD       LGT RAIN  25  21  86 N7        29.99R WCI  17
PARK RAPIDS    CLOUDY    18   7  62 SE5       29.96R WCI  11
MAHNOMEN       CLOUDY    23  16  75 CALM      29.97R
$$
MNZ006-009>011-018-025>026-260400-
   North Central Minnesota

CITY           SKY/WX    TMP DP  RH WIND       PRES   REMARKS
BAUDETTE       CLOUDY    14  10  84 N8        30.01R WCI   3
FLAG ISLAND    CLOUDY    12   9  85 N9        30.04R WCI   0
INTL FALLS     CLOUDY    14  11  87 CALM      30.01R
WASKISH        CLOUDY    18  14  86 CALM      30.01R
BIG FORK       CLOUDY    19   7  58 CALM      29.99R
LONGVILLE      CLOUDY    16   9  73 CALM      29.99R
GRAND RAPIDS   CLOUDY    18   7  62 SE5       29.99R WCI  11
CRANE LAKE     MOCLDY     7   3  85 CALM      30.03S
ORR            CLOUDY    12   7  79 CALM      29.97R
COOK           CLOUDY    14   9  79 CALM      30.00R
WALKER         CLOUDY    19   8  63 CALM      29.98R
$$
MNZ012-019>021-037-260400-
   Northeast Minnesota

CITY           SKY/WX    TMP DP  RH WIND       PRES   REMARKS
DULUTH         CLOUDY    18   9  68 SW6       30.00R WCI  10
ELY            MOCLDY     7   5  92 CALM      30.00R
HIBBING        CLOUDY    19   6  57 S5        30.00R WCI  12
EVELETH        CLOUDY    19   9  63 CALM      30.01R
DULUTH HARBOR  CLOUDY    19  12  73 CALM      30.07S
TWO HARBORS    PTCLDY    18  10  73 CALM      30.01R
SILVER BAY     MOCLDY    12   9  85 CALM      30.01R
GRAND MARAIS     N/A     20   7  57 NW9       30.04R WCI   9
G MARAIS ARPRT PTCLDY    10   3  72 NW6       29.97R WCI   1
$$
MNZ029>031-032-039>041-046>048-054>057-064-260400-
   West Central Minnesota

CITY           SKY/WX    TMP DP  RH WIND       PRES   REMARKS
FERGUS FALLS   CLOUDY    23  12  63 E5        29.97R WCI  17
WHEATON        CLOUDY    21  18  86 SE12      29.92S WCI   9
MORRIS         CLOUDY    25  16  68 SE13      29.89F WCI  13
ALEXANDRIA     CLOUDY    20  13  74 SE9       29.93R WCI   9
ELBOW LAKE       N/A     22  15  71 SE9       29.91S WCI  12
WADENA         MOCLDY    16   9  73 E5        29.95R WCI   9
GLENWOOD       CLOUDY    21  14  73 SE10      29.93S WCI  10
APPLETON       CLOUDY    27  18  69 SE12      29.90S WCI  16
BENSON         CLOUDY    25  18  74 SE13G18   29.91F WCI  13
ORTONVILLE     CLOUDY    25  18  74 SE12      29.88S WCI  14
MADISON        CLOUDY    30  25  80 SE10      29.88F WCI  21
WILLMAR        CLOUDY    27  16  63 SE13      29.95S WCI  16
$$
MNZ033>034-036-042>043-049>051-058-059-260400-
   Central Minnesota

CITY           SKY/WX    TMP DP  RH WIND       PRES   REMARKS
ST CLOUD       CLOUDY    22  12  65 E6        29.99F WCI  14
SAUK CENTRE    CLOUDY    20  13  75 E6        29.95S WCI  12
PAYNESVILLE    CLOUDY    20  12  71 E10       29.96S WCI   9
AITKIN         CLOUDY    19  10  68 CALM      29.99R
PINE RIVER     CLOUDY    18  10  73 E3        30.02R
BRAINERD       CLOUDY    16   8  71 CALM      29.99R
STAPLES        CLOUDY    16   9  73 CALM      29.97R
LONG PRAIRIE   CLOUDY    19  12  73 CALM      29.95S
LITTLE FALLS   MOCLDY    19  12  73 SE5       29.98S WCI  13
LITCHFIELD     CLOUDY    25  18  74 SE8       29.97S WCI  16
BUFFALO        CLOUDY    23  14  69 E6        30.01S WCI  16
MAPLE LAKE     CLOUDY    24  16  73 E5        30.00S WCI  18
$$
MNZ037-044-045-052-053-260400-
   East Central Minnesota

CITY           SKY/WX    TMP DP  RH WIND       PRES   REMARKS
PRINCETON      CLOUDY    21  16  79 CALM      30.01F
MORA           CLOUDY    19  12  73 CALM      30.04R
CAMBRIDGE      CLOUDY    23  14  68 CALM      30.02R
RUSH CITY      CLOUDY    20  15  80 CALM      30.04R
MOOSE LAKE     CLOUDY    19  12  73 CALM      30.01S
HINCKLEY       CLOUDY    21  16  79 CALM      30.03R
CLOQUET        CLOUDY    18  10  73 CALM      30.01S
MCGREGOR       CLOUDY    18  12  79 E3        30.02R
$$
MNZ071>073-080-081-089-090-097-098-260400-
   Southwest Minnesota

CITY           SKY/WX    TMP DP  RH WIND       PRES   REMARKS
MONTEVIDEO     CLOUDY    25  19  80 S12       29.91F WCI  14
GRANITE FALLS  CLOUDY    28  18  66 E9G17     29.91F WCI  19
CANBY          CLOUDY    30  24  79 SE8       29.88S WCI  22
MARSHALL       CLOUDY    30  18  59 SE12      29.88F WCI  21
REDWOOD FALLS  CLOUDY    26  17  68 SE12      29.92F WCI  16
OLIVIA         CLOUDY    28  19  69 SE14      29.93F WCI  17
PIPESTONE      CLOUDY    30  23  74 S14       29.82S WCI  20
WINDOM         CLOUDY    28  16  59 SE12      29.91S WCI  18
WORTHINGTON    CLOUDY    30  19  64 SE16      29.87F WCI  19
JACKSON        CLOUDY    30  16  55 SE12      29.92S WCI  21
TRACY          CLOUDY    31  20  65 S13       29.88F WCI  21
SLAYTON        CLOUDY    28  22  76 SE9       29.87F WCI  20
$$
MNZ065>067-074>077-082>085-091>093-260400-
   South Central Minnesota

CITY           SKY/WX    TMP DP  RH WIND       PRES   REMARKS
MANKATO        CLOUDY    23  14  68 SE12      29.99S WCI  12
NEW ULM        CLOUDY    25  18  74 SE9       29.96S WCI  15
ST JAMES       MOCLDY    27  18  69 SE9       29.96F WCI  17
FAIRMONT       CLOUDY    27  14  59 SE12      29.95S WCI  16
GLENCOE        CLOUDY    26  20  79 E8        29.98S WCI  17
FARIBAULT      MOCLDY    25  16  68 SE8       30.02R WCI  16
OWATONNA       PTCLDY    21  16  79 SE8       30.01R WCI  12
WASECA         PTCLDY    21  14  73 SE10      30.02S WCI  10
ALBERT LEA     PTCLDY    21  18  86 S9        30.00S WCI  11
$$
MNZ078>079-086>088-094>096-260400-
   Southeast Minnesota

CITY           SKY/WX    TMP DP  RH WIND       PRES   REMARKS
ROCHESTER      CLOUDY    19  13  77 SE13      30.02F WCI   6
RED WING       CLOUDY    25  16  68 SE8       30.04S WCI  16
STANTON        CLOUDY    25  17  70 S9        30.02R WCI  16
DODGE CENTER   MOCLDY    21  18  86 S9        30.01R WCI  11
WINONA         MOCLDY    19  14  79 CALM      30.10S
AUSTIN         PTCLDY    19  16  86 SE7       30.02S WCI  10
PRESTON        MOCLDY    13  10  87 SE3       30.05S
$$
ABBREVIATIONS USED IN REMARKS
   TC - TEMPERATURES IN CELSIUS
  WCI - WIND CHILL INDEX
   HX - HEAT INDEX
  VSB - VISIBILITY
$$



USA.gov is the U.S. government's official web portal to all federal, state and local government web resources and services.